08-08-2022, 00:00:07,    336,    0.0,   14.6,   0.00,   0.00, 1022.3,   53.4, -999.0
08-08-2022, 00:00:17,    336,    0.0,   14.6,   0.00,   0.00, 1022.3,   53.4, -999.0
08-08-2022, 00:00:27,    336,    0.0,   14.5,   0.00,   0.00, 1022.3,   53.4, -999.0
08-08-2022, 00:00:37,    336,    0.0,   14.6,   0.00,   0.00, 1022.3,   53.5, -999.0
08-08-2022, 00:00:47,    336,    0.0,   14.6,   0.00,   0.00, 1022.3,   53.4, -999.0
08-08-2022, 00:00:57,    336,    0.0,   14.5,   0.00,   0.00, 1022.3,   53.4, -999.0
08-08-2022, 00:01:07,    336,    0.0,   14.5,   0.00,   0.00, 1022.3,   53.4, -999.0
08-08-2022, 00:01:17,    336,    0.0,   14.4,   0.00,   0.00, 1022.3,   53.5, -999.0
08-08-2022, 00:01:27,    336,    0.0,   14.5,   0.00,   0.00, 1022.3,   53.5, -999.0
08-08-2022, 00:01:37,    336,    0.0,   14.5,   0.00,   0.00, 1022.3,   53.6, -999.0
08-08-2022, 00:01:47,    336,    0.0,   14.5,   0.00,   0.00, 1022.3,   53.7, -999.0
08-08-2022, 00:01:56,    336,    0.0,   14.5,   0.00,   0.00, 1022.3,   53.7, -999.0
08-08-2022, 00:02:07,    336,    0.0,   14.5,   0.00,   0.00, 1022.2,   53.6, -999.0
08-08-2022, 00:02:17,    336,    0.0,   14.5,   0.00,   0.00, 1022.3,   53.7, -999.0
08-08-2022, 00:02:26,    336,    0.0,   14.5,   0.00,   0.00, 1022.3,   53.7, -999.0
08-08-2022, 00:02:36,    336,    0.0,   14.5,   0.00,   0.00, 1022.3,   53.7, -999.0
08-08-2022, 00:02:47,    336,    0.0,   14.4,   0.00,   0.00, 1022.3,   53.6, -999.0
08-08-2022, 00:02:56,    336,    0.0,   14.5,   0.00,   0.00, 1022.3,   53.7, -999.0
08-08-2022, 00:03:06,    336,    0.0,   14.4,   0.00,   0.00, 1022.3,   53.7, -999.0
08-08-2022, 00:03:16,    337,    0.0,   14.3,   0.00,   0.00, 1022.3,   53.7, -999.0
08-08-2022, 00:03:26,    336,    0.0,   14.4,   0.00,   0.00, 1022.3,   53.8, -999.0
08-08-2022, 00:03:36,    336,    0.0,   14.3,   0.00,   0.00, 1022.3,   53.9, -999.0
08-08-2022, 00:03:46,    336,    0.0,   14.4,   0.00,   0.00, 1022.3,   53.8, -999.0
08-08-2022, 00:03:56,    336,    0.0,   14.4,   0.00,   0.00, 1022.3,   53.9, -999.0
08-08-2022, 00:04:06,    336,    0.0,   14.3,   0.00,   0.00, 1022.4,   53.9, -999.0
08-08-2022, 00:04:16,    336,    0.0,   14.3,   0.00,   0.00, 1022.3,   53.9, -999.0
08-08-2022, 00:04:26,    337,    0.0,   14.4,   0.00,   0.00, 1022.3,   53.9, -999.0
08-08-2022, 00:04:36,    336,    0.0,   14.4,   0.00,   0.00, 1022.3,   54.0, -999.0
08-08-2022, 00:04:46,    336,    0.0,   14.3,   0.00,   0.00, 1022.3,   54.0, -999.0
08-08-2022, 00:04:56,    336,    0.0,   14.3,   0.00,   0.00, 1022.3,   54.0, -999.0
08-08-2022, 00:05:05,    336,    0.0,   14.3,   0.00,   0.00, 1022.3,   54.0, -999.0
08-08-2022, 00:05:16,    336,    0.0,   14.3,   0.00,   0.00, 1022.3,   54.0, -999.0
08-08-2022, 00:05:25,    336,    0.0,   14.2,   0.00,   0.00, 1022.3,   54.0, -999.0
08-08-2022, 00:05:35,    336,    0.0,   14.2,   0.00,   0.00, 1022.3,   54.2, -999.0
08-08-2022, 00:05:45,    336,    0.0,   14.3,   0.00,   0.00, 1022.3,   54.2, -999.0
08-08-2022, 00:05:55,    336,    0.0,   14.3,   0.00,   0.00, 1022.3,   54.0, -999.0
08-08-2022, 00:06:05,    336,    0.0,   14.3,   0.00,   0.00, 1022.3,   54.2, -999.0
08-08-2022, 00:06:15,    336,    0.0,   14.3,   0.00,   0.00, 1022.3,   54.2, -999.0
08-08-2022, 00:06:25,    336,    0.0,   14.2,   0.00,   0.00, 1022.3,   54.2, -999.0
08-08-2022, 00:06:35,    336,    0.0,   14.3,   0.00,   0.00, 1022.3,   54.1, -999.0
08-08-2022, 00:06:45,    336,    0.0,   14.3,   0.00,   0.00, 1022.3,   54.2, -999.0
08-08-2022, 00:06:55,    336,    0.0,   14.3,   0.00,   0.00, 1022.3,   54.0, -999.0
08-08-2022, 00:07:05,    334,    0.0,   14.3,   0.00,   0.00, 1022.3,   54.0, -999.0
08-08-2022, 00:07:15,    336,    0.0,   14.3,   0.00,   0.00, 1022.3,   54.0, -999.0
08-08-2022, 00:07:25,    336,    0.0,   14.3,   0.00,   0.00, 1022.3,   54.2, -999.0
08-08-2022, 00:07:34,    336,    0.0,   14.4,   0.00,   0.00, 1022.3,   54.1, -999.0
08-08-2022, 00:07:45,    336,    0.0,   14.3,   0.00,   0.00, 1022.3,   54.1, -999.0
08-08-2022, 00:07:55,    336,    0.0,   14.4,   0.00,   0.00, 1022.3,   54.1, -999.0
08-08-2022, 00:08:04,    335,    0.0,   14.3,   0.00,   0.00, 1022.3,   54.0, -999.0
08-08-2022, 00:08:15,    336,    0.0,   14.3,   0.00,   0.00, 1022.3,   54.1, -999.0
08-08-2022, 00:08:25,    336,    0.0,   14.3,   0.00,   0.00, 1022.3,   54.0, -999.0
08-08-2022, 00:08:34,    336,    0.0,   14.3,   0.00,   0.00, 1022.3,   54.0, -999.0
08-08-2022, 00:08:44,    336,    0.0,   14.2,   0.00,   0.00, 1022.3,   54.0, -999.0
08-08-2022, 00:08:54,    336,    0.0,   14.3,   0.00,   0.00, 1022.3,   54.0, -999.0
08-08-2022, 00:09:04,    336,    0.0,   14.4,   0.00,   0.00, 1022.3,   54.0, -999.0
08-08-2022, 00:09:14,    336,    0.0,   14.3,   0.00,   0.00, 1022.3,   54.0, -999.0
08-08-2022, 00:09:24,    336,    0.0,   14.3,   0.00,   0.00, 1022.3,   54.0, -999.0
08-08-2022, 00:09:34,    336,    0.0,   14.3,   0.00,   0.00, 1022.3,   54.1, -999.0
08-08-2022, 00:09:44,    336,    0.0,   14.3,   0.00,   0.00, 1022.3,   54.0, -999.0
08-08-2022, 00:09:54,    336,    0.0,   14.3,   0.00,   0.00, 1022.3,   54.0, -999.0
08-08-2022, 00:10:04,    336,    0.0,   14.2,   0.00,   0.00, 1022.3,   54.0, -999.0
08-08-2022, 00:10:14,    336,    0.0,   14.3,   0.00,   0.00, 1022.3,   54.1, -999.0
08-08-2022, 00:10:24,    336,    0.0,   14.2,   0.00,   0.00, 1022.3,   54.1, -999.0
08-08-2022, 00:10:34,    336,    0.0,   14.2,   0.00,   0.00, 1022.4,   54.1, -999.0
08-08-2022, 00:10:43,    336,    0.0,   14.2,   0.00,   0.00, 1022.3,   54.2, -999.0
08-08-2022, 00:10:54,    336,    0.0,   14.1,   0.00,   0.00, 1022.4,   54.2, -999.0
08-08-2022, 00:11:03,    336,    0.0,   14.2,   0.00,   0.00, 1022.3,   54.3, -999.0
08-08-2022, 00:11:13,    336,    0.0,   14.2,   0.00,   0.00, 1022.3,   54.4, -999.0
08-08-2022, 00:11:24,    336,    0.0,   14.2,   0.00,   0.00, 1022.3,   54.4, -999.0
08-08-2022, 00:11:33,    336,    0.0,   14.2,   0.00,   0.00, 1022.3,   54.2, -999.0
08-08-2022, 00:11:43,    336,    0.0,   14.2,   0.00,   0.00, 1022.3,   54.3, -999.0
08-08-2022, 00:11:53,    336,    0.0,   14.3,   0.00,   0.00, 1022.3,   54.4, -999.0
08-08-2022, 00:12:03,    336,    0.0,   14.3,   0.00,   0.00, 1022.3,   54.4, -999.0
08-08-2022, 00:12:13,    336,    0.0,   14.2,   0.00,   0.00, 1022.3,   54.3, -999.0
08-08-2022, 00:12:23,    336,    0.0,   14.2,   0.00,   0.00, 1022.3,   54.3, -999.0
08-08-2022, 00:12:33,    336,    0.0,   14.3,   0.00,   0.00, 1022.3,   54.3, -999.0
08-08-2022, 00:12:43,    336,    0.0,   14.2,   0.00,   0.00, 1022.3,   54.4, -999.0
08-08-2022, 00:12:53,    336,    0.0,   14.3,   0.00,   0.00, 1022.3,   54.2, -999.0
08-08-2022, 00:13:03,    336,    0.0,   14.3,   0.00,   0.00, 1022.3,   54.3, -999.0
08-08-2022, 00:13:12,    336,    0.0,   14.2,   0.00,   0.00, 1022.4,   54.3, -999.0
08-08-2022, 00:13:23,    336,    0.0,   14.3,   0.00,   0.00, 1022.4,   54.3, -999.0
08-08-2022, 00:13:33,    336,    0.0,   14.2,   0.00,   0.00, 1022.4,   54.2, -999.0
08-08-2022, 00:13:42,    336,    0.0,   14.2,   0.00,   0.00, 1022.4,   54.3, -999.0
08-08-2022, 00:13:53,    336,    0.0,   14.3,   0.00,   0.00, 1022.4,   54.3, -999.0
08-08-2022, 00:14:03,    336,    0.0,   14.3,   0.00,   0.00, 1022.4,   54.4, -999.0
08-08-2022, 00:14:12,    336,    0.0,   14.3,   0.00,   0.00, 1022.3,   54.3, -999.0
08-08-2022, 00:14:22,    336,    0.0,   14.2,   0.00,   0.00, 1022.3,   54.3, -999.0
08-08-2022, 00:14:32,    336,    0.0,   14.3,   0.00,   0.00, 1022.4,   54.2, -999.0
08-08-2022, 00:14:42,    336,    0.0,   14.3,   0.00,   0.00, 1022.4,   54.4, -999.0
08-08-2022, 00:14:52,    336,    0.0,   14.3,   0.00,   0.00, 1022.3,   54.4, -999.0
08-08-2022, 00:15:02,    336,    0.0,   14.2,   0.00,   0.00, 1022.3,   54.3, -999.0
08-08-2022, 00:15:12,    336,    0.0,   14.2,   0.00,   0.00, 1022.3,   54.4, -999.0
08-08-2022, 00:15:22,    336,    0.0,   14.2,   0.00,   0.00, 1022.3,   54.3, -999.0
08-08-2022, 00:15:32,    336,    0.0,   14.2,   0.00,   0.00, 1022.4,   54.4, -999.0
08-08-2022, 00:15:42,    336,    0.0,   14.2,   0.00,   0.00, 1022.3,   54.4, -999.0
08-08-2022, 00:15:52,    336,    0.0,   14.3,   0.00,   0.00, 1022.4,   54.4, -999.0
08-08-2022, 00:16:02,    336,    0.0,   14.2,   0.00,   0.00, 1022.4,   54.4, -999.0
08-08-2022, 00:16:12,    336,    0.0,   14.1,   0.00,   0.00, 1022.4,   54.5, -999.0
08-08-2022, 00:16:22,    336,    0.0,   14.2,   0.00,   0.00, 1022.4,   54.5, -999.0
08-08-2022, 00:16:32,    336,    0.0,   14.2,   0.00,   0.00, 1022.4,   54.5, -999.0
08-08-2022, 00:16:41,    336,    0.0,   14.3,   0.00,   0.00, 1022.4,   54.6, -999.0
08-08-2022, 00:16:51,    336,    0.0,   14.3,   0.00,   0.00, 1022.4,   54.5, -999.0
08-08-2022, 00:17:02,    336,    0.0,   14.3,   0.00,   0.00, 1022.3,   54.4, -999.0
08-08-2022, 00:17:11,    336,    0.0,   14.3,   0.00,   0.00, 1022.4,   54.5, -999.0
08-08-2022, 00:17:21,    336,    0.0,   14.3,   0.00,   0.00, 1022.3,   54.5, -999.0
08-08-2022, 00:17:31,    336,    0.0,   14.3,   0.00,   0.00, 1022.3,   54.5, -999.0
08-08-2022, 00:17:41,    336,    0.0,   14.3,   0.00,   0.00, 1022.3,   54.5, -999.0
08-08-2022, 00:17:51,    336,    0.0,   14.1,   0.00,   0.00, 1022.3,   54.4, -999.0
08-08-2022, 00:18:01,    336,    0.0,   14.2,   0.00,   0.00, 1022.3,   54.3, -999.0
08-08-2022, 00:18:11,    336,    0.0,   14.1,   0.00,   0.00, 1022.3,   54.5, -999.0
08-08-2022, 00:18:21,    336,    0.0,   14.2,   0.00,   0.00, 1022.3,   54.4, -999.0
08-08-2022, 00:18:31,    336,    0.0,   14.3,   0.00,   0.00, 1022.4,   54.4, -999.0
08-08-2022, 00:18:41,    336,    0.0,   14.1,   0.00,   0.00, 1022.3,   54.7, -999.0
08-08-2022, 00:18:51,    336,    0.0,   14.2,   0.00,   0.00, 1022.4,   54.6, -999.0
08-08-2022, 00:19:01,    336,    0.0,   14.2,   0.00,   0.00, 1022.3,   54.4, -999.0
08-08-2022, 00:19:11,    336,    0.0,   14.2,   0.00,   0.00, 1022.3,   54.6, -999.0
08-08-2022, 00:19:20,    336,    0.0,   14.2,   0.00,   0.00, 1022.3,   54.4, -999.0
08-08-2022, 00:19:31,    336,    0.0,   14.3,   0.00,   0.00, 1022.3,   54.4, -999.0
08-08-2022, 00:19:41,    335,    0.0,   14.3,   0.00,   0.00, 1022.3,   54.4, -999.0
08-08-2022, 00:19:50,    336,    0.0,   14.2,   0.00,   0.00, 1022.3,   54.4, -999.0
08-08-2022, 00:20:00,    336,    0.0,   14.2,   0.00,   0.00, 1022.3,   54.5, -999.0
08-08-2022, 00:20:10,    336,    0.0,   14.2,   0.00,   0.00, 1022.3,   54.5, -999.0
08-08-2022, 00:20:20,    336,    0.0,   14.1,   0.00,   0.00, 1022.3,   54.5, -999.0
08-08-2022, 00:20:30,    336,    0.0,   14.2,   0.00,   0.00, 1022.3,   54.7, -999.0
08-08-2022, 00:20:40,    336,    0.0,   14.2,   0.00,   0.00, 1022.3,   54.6, -999.0
08-08-2022, 00:20:50,    336,    0.0,   14.2,   0.00,   0.00, 1022.3,   54.7, -999.0
08-08-2022, 00:21:00,    336,    0.0,   14.2,   0.00,   0.00, 1022.3,   54.7, -999.0
08-08-2022, 00:21:10,    336,    0.0,   14.2,   0.00,   0.00, 1022.3,   54.6, -999.0
08-08-2022, 00:21:20,    336,    0.0,   14.1,   0.00,   0.00, 1022.3,   54.6, -999.0
08-08-2022, 00:21:30,    336,    0.0,   14.1,   0.00,   0.00, 1022.3,   54.6, -999.0
08-08-2022, 00:21:40,    336,    0.0,   14.2,   0.00,   0.00, 1022.3,   54.7, -999.0
08-08-2022, 00:21:50,    336,    0.0,   14.1,   0.00,   0.00, 1022.3,   54.7, -999.0
08-08-2022, 00:22:00,    336,    0.0,   14.1,   0.00,   0.00, 1022.3,   54.8, -999.0
08-08-2022, 00:22:10,    336,    0.0,   14.1,   0.00,   0.00, 1022.3,   54.8, -999.0
08-08-2022, 00:22:19,    336,    0.0,   14.1,   0.00,   0.00, 1022.3,   54.9, -999.0
08-08-2022, 00:22:29,    336,    0.0,   14.1,   0.00,   0.00, 1022.3,   54.9, -999.0
08-08-2022, 00:22:40,    336,    0.0,   14.0,   0.00,   0.00, 1022.3,   55.0, -999.0
08-08-2022, 00:22:49,    336,    0.0,   14.0,   0.00,   0.00, 1022.3,   55.0, -999.0
08-08-2022, 00:22:59,    336,    0.0,   14.0,   0.00,   0.00, 1022.3,   55.0, -999.0
08-08-2022, 00:23:09,    336,    0.0,   14.0,   0.00,   0.00, 1022.3,   55.1, -999.0
08-08-2022, 00:23:21,    336,    0.0,   14.0,   0.00,   0.00, 1022.3,   54.9, -999.0
08-08-2022, 00:23:29,    336,    0.0,   14.0,   0.00,   0.00, 1022.4,   55.0, -999.0
08-08-2022, 00:23:39,    336,    0.0,   14.0,   0.00,   0.00, 1022.4,   55.0, -999.0
08-08-2022, 00:23:49,    336,    0.0,   14.0,   0.00,   0.00, 1022.3,   55.1, -999.0
08-08-2022, 00:23:59,    336,    0.0,   14.0,   0.00,   0.00, 1022.3,   55.1, -999.0
08-08-2022, 00:24:09,    336,    0.0,   14.0,   0.00,   0.00, 1022.3,   55.1, -999.0
08-08-2022, 00:24:19,    336,    0.0,   14.0,   0.00,   0.00, 1022.3,   55.2, -999.0
08-08-2022, 00:24:29,    336,    0.0,   14.0,   0.00,   0.00, 1022.3,   55.1, -999.0
08-08-2022, 00:24:39,    336,    0.0,   14.0,   0.00,   0.00, 1022.3,   55.1, -999.0
08-08-2022, 00:24:49,    336,    0.0,   14.0,   0.00,   0.00, 1022.3,   55.0, -999.0
08-08-2022, 00:24:59,    336,    0.0,   14.0,   0.00,   0.00, 1022.3,   55.1, -999.0
08-08-2022, 00:25:09,    336,    0.0,   13.9,   0.00,   0.00, 1022.3,   55.0, -999.0
08-08-2022, 00:25:18,    336,    0.0,   14.0,   0.00,   0.00, 1022.4,   55.2, -999.0
08-08-2022, 00:25:28,    336,    0.0,   14.0,   0.00,   0.00, 1022.3,   55.2, -999.0
08-08-2022, 00:25:39,    336,    0.0,   14.0,   0.00,   0.00, 1022.3,   55.3, -999.0
08-08-2022, 00:25:48,    337,    0.0,   14.0,   0.00,   0.00, 1022.3,   55.3, -999.0
08-08-2022, 00:25:58,    336,    0.0,   14.0,   0.00,   0.00, 1022.3,   55.1, -999.0
08-08-2022, 00:26:08,    336,    0.0,   14.1,   0.00,   0.00, 1022.3,   55.2, -999.0
08-08-2022, 00:26:18,    336,    0.0,   14.1,   0.00,   0.00, 1022.3,   55.1, -999.0
08-08-2022, 00:26:28,    336,    0.0,   14.0,   0.00,   0.00, 1022.3,   55.1, -999.0
08-08-2022, 00:26:38,    336,    0.0,   14.0,   0.00,   0.00, 1022.4,   55.1, -999.0
08-08-2022, 00:26:48,    336,    0.0,   14.1,   0.00,   0.00, 1022.3,   55.1, -999.0
08-08-2022, 00:26:58,    336,    0.0,   14.1,   0.00,   0.00, 1022.4,   55.1, -999.0
08-08-2022, 00:27:08,    336,    0.0,   14.1,   0.00,   0.00, 1022.3,   55.1, -999.0
08-08-2022, 00:27:18,    336,    0.0,   14.0,   0.00,   0.00, 1022.3,   55.2, -999.0
08-08-2022, 00:27:28,    336,    0.0,   14.0,   0.00,   0.00, 1022.3,   55.1, -999.0
08-08-2022, 00:27:38,    336,    0.0,   14.0,   0.00,   0.00, 1022.4,   55.2, -999.0
08-08-2022, 00:27:48,    336,    0.0,   14.0,   0.00,   0.00, 1022.4,   55.1, -999.0
08-08-2022, 00:27:57,    336,    0.0,   14.0,   0.00,   0.00, 1022.3,   55.2, -999.0
08-08-2022, 00:28:08,    336,    0.0,   14.0,   0.00,   0.00, 1022.3,   55.3, -999.0
08-08-2022, 00:28:18,    336,    0.0,   13.9,   0.00,   0.00, 1022.3,   55.4, -999.0
08-08-2022, 00:28:27,    336,    0.0,   13.9,   0.00,   0.00, 1022.3,   55.4, -999.0
08-08-2022, 00:28:37,    336,    0.0,   13.9,   0.00,   0.00, 1022.3,   55.3, -999.0
08-08-2022, 00:28:47,    336,    0.0,   13.9,   0.00,   0.00, 1022.3,   55.5, -999.0
08-08-2022, 00:28:57,    336,    0.0,   13.9,   0.00,   0.00, 1022.3,   55.4, -999.0
08-08-2022, 00:29:07,    336,    0.0,   13.9,   0.00,   0.00, 1022.4,   55.5, -999.0
08-08-2022, 00:29:17,    336,    0.0,   13.9,   0.00,   0.00, 1022.3,   55.4, -999.0
08-08-2022, 00:29:27,    336,    0.0,   13.9,   0.00,   0.00, 1022.3,   55.4, -999.0
08-08-2022, 00:29:37,    336,    0.0,   13.9,   0.00,   0.00, 1022.3,   55.5, -999.0
08-08-2022, 00:29:47,    336,    0.0,   13.8,   0.00,   0.00, 1022.3,   55.6, -999.0
08-08-2022, 00:29:57,    336,    0.0,   13.7,   0.00,   0.00, 1022.3,   55.7, -999.0
08-08-2022, 00:30:07,    336,    0.0,   13.8,   0.00,   0.00, 1022.3,   55.6, -999.0
08-08-2022, 00:30:17,    336,    0.0,   13.8,   0.00,   0.00, 1022.3,   55.6, -999.0
08-08-2022, 00:30:27,    336,    0.0,   13.7,   0.00,   0.00, 1022.3,   55.7, -999.0
08-08-2022, 00:30:37,    336,    0.0,   13.8,   0.00,   0.00, 1022.3,   55.8, -999.0
08-08-2022, 00:30:47,    336,    0.0,   13.8,   0.00,   0.00, 1022.3,   55.9, -999.0
08-08-2022, 00:30:56,    336,    0.0,   13.8,   0.00,   0.00, 1022.3,   55.8, -999.0
08-08-2022, 00:31:06,    336,    0.0,   13.8,   0.00,   0.00, 1022.3,   55.8, -999.0
08-08-2022, 00:31:17,    336,    0.0,   13.8,   0.00,   0.00, 1022.4,   55.7, -999.0
08-08-2022, 00:31:26,    336,    0.0,   13.8,   0.00,   0.00, 1022.3,   55.9, -999.0
08-08-2022, 00:31:36,    336,    0.0,   13.8,   0.00,   0.00, 1022.3,   55.9, -999.0
08-08-2022, 00:31:46,    336,    0.0,   13.9,   0.00,   0.00, 1022.3,   55.9, -999.0
08-08-2022, 00:31:56,    336,    0.0,   13.8,   0.00,   0.00, 1022.3,   55.9, -999.0
08-08-2022, 00:32:06,    336,    0.0,   13.9,   0.00,   0.00, 1022.3,   55.8, -999.0
08-08-2022, 00:32:16,    336,    0.0,   13.8,   0.00,   0.00, 1022.3,   55.8, -999.0
08-08-2022, 00:32:26,    336,    0.0,   13.8,   0.00,   0.00, 1022.3,   55.9, -999.0
08-08-2022, 00:32:36,    336,    0.0,   13.8,   0.00,   0.00, 1022.3,   55.8, -999.0
08-08-2022, 00:32:46,    336,    0.0,   13.8,   0.00,   0.00, 1022.4,   55.8, -999.0
08-08-2022, 00:32:56,    336,    0.0,   13.9,   0.00,   0.00, 1022.3,   55.7, -999.0
08-08-2022, 00:33:06,    336,    0.0,   13.9,   0.00,   0.00, 1022.3,   55.8, -999.0
08-08-2022, 00:33:16,    336,    0.0,   13.8,   0.00,   0.00, 1022.3,   55.8, -999.0
08-08-2022, 00:33:26,    336,    0.0,   13.8,   0.00,   0.00, 1022.3,   55.8, -999.0
08-08-2022, 00:33:35,    336,    0.0,   13.9,   0.00,   0.00, 1022.3,   56.0, -999.0
08-08-2022, 00:33:46,    336,    0.0,   13.9,   0.00,   0.00, 1022.3,   55.9, -999.0
08-08-2022, 00:33:56,    335,    0.0,   13.8,   0.00,   0.00, 1022.3,   56.0, -999.0
08-08-2022, 00:34:05,    336,    0.0,   13.9,   0.00,   0.00, 1022.3,   56.0, -999.0
08-08-2022, 00:34:15,    336,    0.0,   13.8,   0.00,   0.00, 1022.3,   56.0, -999.0
08-08-2022, 00:34:25,    336,    0.0,   13.8,   0.00,   0.00, 1022.3,   56.0, -999.0
08-08-2022, 00:34:35,    336,    0.0,   13.8,   0.00,   0.00, 1022.3,   56.1, -999.0
08-08-2022, 00:34:45,    336,    0.0,   13.8,   0.00,   0.00, 1022.3,   56.0, -999.0
08-08-2022, 00:34:55,    336,    0.0,   13.7,   0.00,   0.00, 1022.3,   56.0, -999.0
08-08-2022, 00:35:05,    336,    0.0,   13.6,   0.00,   0.00, 1022.3,   56.1, -999.0
08-08-2022, 00:35:15,    336,    0.0,   13.8,   0.00,   0.00, 1022.3,   56.1, -999.0
08-08-2022, 00:35:25,    336,    0.0,   13.7,   0.00,   0.00, 1022.3,   56.0, -999.0
08-08-2022, 00:35:35,    336,    0.0,   13.8,   0.00,   0.00, 1022.3,   56.1, -999.0
08-08-2022, 00:35:45,    336,    0.0,   13.8,   0.00,   0.00, 1022.3,   56.1, -999.0
08-08-2022, 00:35:55,    336,    0.0,   13.7,   0.00,   0.00, 1022.3,   56.1, -999.0
08-08-2022, 00:36:05,    336,    0.0,   13.7,   0.00,   0.00, 1022.3,   56.2, -999.0
08-08-2022, 00:36:15,    336,    0.0,   13.7,   0.00,   0.00, 1022.3,   56.1, -999.0
08-08-2022, 00:36:25,    336,    0.0,   13.7,   0.00,   0.00, 1022.3,   56.3, -999.0
08-08-2022, 00:36:34,    336,    0.0,   13.6,   0.00,   0.00, 1022.3,   56.4, -999.0
08-08-2022, 00:36:44,    336,    0.0,   13.7,   0.00,   0.00, 1022.3,   56.4, -999.0
08-08-2022, 00:36:55,    336,    0.0,   13.7,   0.00,   0.00, 1022.3,   56.4, -999.0
08-08-2022, 00:37:04,    336,    0.0,   13.7,   0.00,   0.00, 1022.3,   56.3, -999.0
08-08-2022, 00:37:14,    336,    0.0,   13.7,   0.00,   0.00, 1022.4,   56.2, -999.0
08-08-2022, 00:37:24,    336,    0.0,   13.7,   0.00,   0.00, 1022.3,   56.3, -999.0
08-08-2022, 00:37:34,    336,    0.0,   13.7,   0.00,   0.00, 1022.3,   56.4, -999.0
08-08-2022, 00:37:44,    336,    0.0,   13.7,   0.00,   0.00, 1022.3,   56.6, -999.0
08-08-2022, 00:37:54,    336,    0.0,   13.7,   0.00,   0.00, 1022.3,   56.4, -999.0
08-08-2022, 00:38:04,    336,    0.0,   13.7,   0.00,   0.00, 1022.3,   56.5, -999.0
08-08-2022, 00:38:14,    336,    0.0,   13.7,   0.00,   0.00, 1022.3,   56.5, -999.0
08-08-2022, 00:38:24,    336,    0.0,   13.7,   0.00,   0.00, 1022.3,   56.4, -999.0
08-08-2022, 00:38:34,    336,    0.0,   13.7,   0.00,   0.00, 1022.3,   56.5, -999.0
08-08-2022, 00:38:44,    336,    0.0,   13.7,   0.00,   0.00, 1022.4,   56.6, -999.0
08-08-2022, 00:38:54,    336,    0.0,   13.7,   0.00,   0.00, 1022.3,   56.4, -999.0
08-08-2022, 00:39:04,    336,    0.0,   13.7,   0.00,   0.00, 1022.4,   56.4, -999.0
08-08-2022, 00:39:13,    336,    0.0,   13.7,   0.00,   0.00, 1022.3,   56.5, -999.0
08-08-2022, 00:39:24,    336,    0.0,   13.7,   0.00,   0.00, 1022.3,   56.5, -999.0
08-08-2022, 00:39:34,    336,    0.0,   13.7,   0.00,   0.00, 1022.3,   56.4, -999.0
08-08-2022, 00:39:43,    336,    0.0,   13.7,   0.00,   0.00, 1022.4,   56.5, -999.0
08-08-2022, 00:39:54,    336,    0.0,   13.7,   0.00,   0.00, 1022.4,   56.4, -999.0
08-08-2022, 00:40:03,    336,    0.0,   13.7,   0.00,   0.00, 1022.3,   56.5, -999.0
08-08-2022, 00:40:13,    336,    0.0,   13.7,   0.00,   0.00, 1022.4,   56.4, -999.0
08-08-2022, 00:40:23,    335,    0.0,   13.6,   0.00,   0.00, 1022.4,   56.5, -999.0
08-08-2022, 00:40:33,    336,    0.0,   13.6,   0.00,   0.00, 1022.4,   56.4, -999.0
08-08-2022, 00:40:44,    336,    0.0,   13.7,   0.00,   0.00, 1022.4,   56.4, -999.0
08-08-2022, 00:40:53,    336,    0.0,   13.7,   0.00,   0.00, 1022.3,   56.4, -999.0
08-08-2022, 00:41:03,    336,    0.0,   13.6,   0.00,   0.00, 1022.4,   56.6, -999.0
08-08-2022, 00:41:13,    336,    0.0,   13.7,   0.00,   0.00, 1022.4,   56.6, -999.0
08-08-2022, 00:41:23,    336,    0.0,   13.7,   0.00,   0.00, 1022.3,   56.5, -999.0
08-08-2022, 00:41:33,    336,    0.0,   13.7,   0.00,   0.00, 1022.3,   56.6, -999.0
08-08-2022, 00:41:43,    336,    0.0,   13.7,   0.00,   0.00, 1022.3,   56.6, -999.0
08-08-2022, 00:41:53,    336,    0.0,   13.7,   0.00,   0.00, 1022.4,   56.6, -999.0
08-08-2022, 00:42:03,    336,    0.0,   13.7,   0.00,   0.00, 1022.4,   56.5, -999.0
08-08-2022, 00:42:12,    336,    0.0,   13.7,   0.00,   0.00, 1022.4,   56.5, -999.0
08-08-2022, 00:42:23,    336,    0.0,   13.7,   0.00,   0.00, 1022.3,   56.6, -999.0
08-08-2022, 00:42:33,    336,    0.0,   13.7,   0.00,   0.00, 1022.3,   56.5, -999.0
08-08-2022, 00:42:42,    336,    0.0,   13.7,   0.00,   0.00, 1022.4,   56.4, -999.0
08-08-2022, 00:42:52,    336,    0.0,   13.8,   0.00,   0.00, 1022.3,   56.5, -999.0
08-08-2022, 00:43:02,    336,    0.0,   13.8,   0.00,   0.00, 1022.3,   56.4, -999.0
08-08-2022, 00:43:12,    336,    0.0,   13.8,   0.00,   0.00, 1022.4,   56.4, -999.0
08-08-2022, 00:43:22,    336,    0.0,   13.8,   0.00,   0.00, 1022.4,   56.4, -999.0
08-08-2022, 00:43:32,    336,    0.0,   13.7,   0.00,   0.00, 1022.4,   56.3, -999.0
08-08-2022, 00:43:42,    336,    0.0,   13.7,   0.00,   0.00, 1022.4,   56.3, -999.0
08-08-2022, 00:43:52,    336,    0.0,   13.7,   0.00,   0.00, 1022.4,   56.3, -999.0
08-08-2022, 00:44:02,    336,    0.0,   13.7,   0.00,   0.00, 1022.4,   56.3, -999.0
08-08-2022, 00:44:12,    336,    0.0,   13.7,   0.00,   0.00, 1022.4,   56.5, -999.0
08-08-2022, 00:44:22,    336,    0.0,   13.6,   0.00,   0.00, 1022.4,   56.4, -999.0
08-08-2022, 00:44:32,    336,    0.0,   13.7,   0.00,   0.00, 1022.4,   56.5, -999.0
08-08-2022, 00:44:42,    336,    0.0,   13.7,   0.00,   0.00, 1022.4,   56.5, -999.0
08-08-2022, 00:44:52,    336,    0.0,   13.7,   0.00,   0.00, 1022.4,   56.5, -999.0
08-08-2022, 00:45:02,    336,    0.0,   13.7,   0.00,   0.00, 1022.4,   56.6, -999.0
08-08-2022, 00:45:11,    336,    0.0,   13.7,   0.00,   0.00, 1022.4,   56.6, -999.0
08-08-2022, 00:45:21,    336,    0.0,   13.7,   0.00,   0.00, 1022.3,   56.5, -999.0
08-08-2022, 00:45:32,    336,    0.0,   13.7,   0.00,   0.00, 1022.3,   56.8, -999.0
08-08-2022, 00:45:41,    336,    0.0,   13.6,   0.00,   0.00, 1022.4,   56.8, -999.0
08-08-2022, 00:45:51,    336,    0.0,   13.6,   0.00,   0.00, 1022.3,   56.8, -999.0
08-08-2022, 00:46:01,    336,    0.0,   13.6,   0.00,   0.00, 1022.3,   56.8, -999.0
08-08-2022, 00:46:11,    336,    0.0,   13.5,   0.00,   0.00, 1022.4,   56.9, -999.0
08-08-2022, 00:46:21,    331,    0.0,   13.5,   0.00,   0.00, 1022.4,   56.9, -999.0
08-08-2022, 00:46:31,    336,    0.0,   13.5,   0.00,   0.00, 1022.4,   57.1, -999.0
08-08-2022, 00:46:41,    336,    0.0,   13.5,   0.00,   0.00, 1022.4,   57.0, -999.0